Powrót do katalogu

FENGYUN 1C DEB

AktywnySSO
NORAD 30276·DEBRIS·🇨🇳 China

Wystrzelony May 10, 1999 z Taiyuan Satellite Launch Center

Loading…

Następne Przeloty (najbliższe 24 godziny)

TLE

ŚwieżeSource: Space-Track

Epoka: Sep 14, 2026, 16:07 UTC

1 30276U 99025YM  26257.67197994  .00001636  00000-0  66902-3 0  9999
2 30276  98.8444 337.8207 0023714   8.4847 351.6730 14.28528444 14467

Śledź FENGYUN 1C DEB w czasie rzeczywistym z AllMySat

Download on the App Store